WJA1845 KMSP-CYXE

Flight info

Callsign WJA1845
Flight time 1h 49m
Altitude 38000
Route KBREW2 FAR DCT KP15C DCT EMLIK DCT AMUNA DUNEM7
Aircraft B38M/M-SDE1FGHILORVWXY/HB1

Departure

Time 2026-04-26 14:58
Airport Minneapolis–Saint Paul International Airport / Wold–Chamberlain Field (KMSP)

Arrival

Time 2026-04-26 16:48
Airport Saskatoon John G. Diefenbaker International Airport (CYXE)
Time Latitude Longitude Altitude Speed Heading
2026-04-26 14:46 44.88367 -93.20608 827 ft 0 kts 221°
2026-04-26 14:48 44.88367 -93.20607 827 ft 0 kts 221°
2026-04-26 14:48 44.88368 -93.20607 827 ft 0 kts 221°
2026-04-26 14:49 44.88380 -93.20593 825 ft 3 kts 221°
2026-04-26 14:50 44.88396 -93.20574 822 ft 3 kts 221°
2026-04-26 14:50 44.88407 -93.20560 825 ft 3 kts 216°
2026-04-26 14:50 44.88421 -93.20551 824 ft 3 kts 165°
2026-04-26 14:50 44.88433 -93.20565 825 ft 3 kts 121°
2026-04-26 14:51 44.88443 -93.20590 825 ft 3 kts 118°
2026-04-26 14:51 44.88448 -93.20602 824 ft 0 kts 121°
2026-04-26 14:54 44.88445 -93.20594 824 ft 3 kts 121°
2026-04-26 14:54 44.88438 -93.20521 827 ft 12 kts 91°
2026-04-26 14:55 44.88425 -93.20390 827 ft 15 kts 113°
2026-04-26 14:55 44.88370 -93.20258 826 ft 16 kts 121°
2026-04-26 14:55 44.88309 -93.20115 827 ft 18 kts 121°
2026-04-26 14:55 44.88241 -93.19956 828 ft 20 kts 121°
2026-04-26 14:56 44.88172 -93.19794 827 ft 17 kts 122°
2026-04-26 14:56 44.88114 -93.19665 825 ft 15 kts 122°
2026-04-26 14:56 44.88063 -93.19542 827 ft 12 kts 110°
2026-04-26 14:56 44.88089 -93.19447 827 ft 11 kts 25°
2026-04-26 14:57 44.88144 -93.19446 827 ft 5 kts 319°
2026-04-26 14:57 44.88154 -93.19465 827 ft 0 kts 303°
2026-04-26 14:57 44.88170 -93.19500 828 ft 25 kts 302°
2026-04-26 14:57 44.88396 -93.20022 826 ft 97 kts 301°
2026-04-26 14:58 44.88859 -93.21092 826 ft 155 kts 301°
2026-04-26 14:58 44.89472 -93.22486 1238 ft 170 kts 305°
2026-04-26 14:58 44.90084 -93.23904 2093 ft 169 kts 304°
2026-04-26 14:58 44.90779 -93.25297 2588 ft 183 kts 319°
2026-04-26 14:59 44.91887 -93.26313 3053 ft 196 kts 337°
2026-04-26 14:59 44.93197 -93.27044 3611 ft 209 kts 340°
2026-04-26 14:59 44.94621 -93.27680 4197 ft 220 kts 341°
2026-04-26 14:59 44.95102 -93.27876 4397 ft 224 kts 341°
2026-04-26 15:00 44.97714 -93.28890 5492 ft 243 kts 340°
2026-04-26 15:00 44.99338 -93.29660 6198 ft 251 kts 336°
2026-04-26 15:00 45.01013 -93.30536 6874 ft 261 kts 336°
2026-04-26 15:00 45.02740 -93.31433 7630 ft 267 kts 336°
2026-04-26 15:01 45.04501 -93.32335 8401 ft 272 kts 336°
2026-04-26 15:01 45.06310 -93.33239 9159 ft 279 kts 337°
2026-04-26 15:01 45.08153 -93.34141 9982 ft 282 kts 338°
2026-04-26 15:01 45.10021 -93.35057 10691 ft 288 kts 337°
2026-04-26 15:02 45.11949 -93.36018 11233 ft 301 kts 337°
2026-04-26 15:02 45.13255 -93.36763 11485 ft 310 kts 327°
2026-04-26 15:02 45.14924 -93.38752 11830 ft 320 kts 303°
2026-04-26 15:02 45.16112 -93.41476 12245 ft 332 kts 296°
2026-04-26 15:03 45.17665 -93.45315 13085 ft 341 kts 295°
2026-04-26 15:03 45.18836 -93.48258 13863 ft 345 kts 295°
2026-04-26 15:03 45.20010 -93.51241 14540 ft 348 kts 295°
2026-04-26 15:03 45.20806 -93.53273 15022 ft 349 kts 295°
2026-04-26 15:04 45.21969 -93.56252 15719 ft 351 kts 294°
2026-04-26 15:04 45.23152 -93.59289 16412 ft 353 kts 294°
2026-04-26 15:04 45.24340 -93.62343 17107 ft 355 kts 294°
2026-04-26 15:04 45.25535 -93.65417 17771 ft 357 kts 294°
2026-04-26 15:05 45.26737 -93.68515 18426 ft 359 kts 294°
2026-04-26 15:05 45.27554 -93.70623 18823 ft 361 kts 294°
2026-04-26 15:05 45.29158 -93.74765 19583 ft 363 kts 294°
2026-04-26 15:05 45.30378 -93.77916 20176 ft 364 kts 294°
2026-04-26 15:06 45.31601 -93.81083 20772 ft 365 kts 294°
2026-04-26 15:06 45.32826 -93.84256 21339 ft 367 kts 294°
2026-04-26 15:06 45.34056 -93.87449 21914 ft 368 kts 294°
2026-04-26 15:06 45.35271 -93.90604 22454 ft 370 kts 294°
2026-04-26 15:07 45.37746 -93.97045 23561 ft 373 kts 294°
2026-04-26 15:07 45.38992 -94.00291 24040 ft 374 kts 294°
2026-04-26 15:07 45.40242 -94.03553 24497 ft 376 kts 294°
2026-04-26 15:08 45.41499 -94.06837 24957 ft 378 kts 294°
2026-04-26 15:08 45.42756 -94.10128 25394 ft 379 kts 294°
2026-04-26 15:08 45.44021 -94.13441 25843 ft 381 kts 294°
2026-04-26 15:08 45.45288 -94.16762 26275 ft 383 kts 294°
2026-04-26 15:09 45.46559 -94.20099 26711 ft 384 kts 294°
2026-04-26 15:09 45.47835 -94.23454 27130 ft 386 kts 293°
2026-04-26 15:09 45.49117 -94.26827 27535 ft 388 kts 293°
2026-04-26 15:09 45.50403 -94.30217 27947 ft 390 kts 293°
2026-04-26 15:10 45.51677 -94.33579 28344 ft 391 kts 293°
2026-04-26 15:10 45.52552 -94.35890 28610 ft 393 kts 293°
2026-04-26 15:10 45.54274 -94.40443 29127 ft 395 kts 293°
2026-04-26 15:10 45.55578 -94.43898 29514 ft 397 kts 293°
2026-04-26 15:11 45.56891 -94.47377 29872 ft 399 kts 293°
2026-04-26 15:11 45.58214 -94.50860 30233 ft 401 kts 295°
2026-04-26 15:11 45.59837 -94.54147 30552 ft 407 kts 301°
2026-04-26 15:11 45.61528 -94.57405 30861 ft 408 kts 300°
2026-04-26 15:12 45.63219 -94.60665 31154 ft 410 kts 300°
2026-04-26 15:12 45.64924 -94.63951 31468 ft 411 kts 300°
2026-04-26 15:12 45.66628 -94.67237 31841 ft 410 kts 300°
2026-04-26 15:12 45.68323 -94.70509 32267 ft 408 kts 300°
2026-04-26 15:13 45.70011 -94.73769 32681 ft 407 kts 300°
2026-04-26 15:13 45.71688 -94.77014 33113 ft 405 kts 300°
2026-04-26 15:13 45.73358 -94.80248 33529 ft 403 kts 300°
2026-04-26 15:13 45.75018 -94.83467 33932 ft 401 kts 299°
2026-04-26 15:14 45.76655 -94.86642 34297 ft 400 kts 299°
2026-04-26 15:14 45.78306 -94.89850 34579 ft 400 kts 299°
2026-04-26 15:14 45.79958 -94.93064 34813 ft 401 kts 299°
2026-04-26 15:14 45.81616 -94.96292 35054 ft 401 kts 299°
2026-04-26 15:15 45.83272 -94.99522 35287 ft 402 kts 299°
2026-04-26 15:15 45.84930 -95.02760 35529 ft 403 kts 300°
2026-04-26 15:15 45.86592 -95.06006 35757 ft 404 kts 300°
2026-04-26 15:15 45.88252 -95.09254 35979 ft 404 kts 300°
2026-04-26 15:16 45.89918 -95.12518 36194 ft 405 kts 300°
2026-04-26 15:16 45.91583 -95.15784 36414 ft 406 kts 300°
2026-04-26 15:16 45.93252 -95.19059 36621 ft 406 kts 300°
2026-04-26 15:16 45.94923 -95.22344 36819 ft 407 kts 300°
2026-04-26 15:17 45.96592 -95.25630 37030 ft 408 kts 300°
2026-04-26 15:17 45.97702 -95.27817 37165 ft 408 kts 300°
2026-04-26 15:17 45.99946 -95.32242 37417 ft 409 kts 300°
2026-04-26 15:17 46.01623 -95.35552 37605 ft 410 kts 300°
2026-04-26 15:18 46.03304 -95.38876 37784 ft 411 kts 300°
2026-04-26 15:18 46.04983 -95.42201 37957 ft 411 kts 300°
2026-04-26 15:18 46.06646 -95.45497 38120 ft 412 kts 300°
2026-04-26 15:18 46.08329 -95.48836 38176 ft 413 kts 300°
2026-04-26 15:19 46.11698 -95.55533 38175 ft 412 kts 300°
2026-04-26 15:19 46.15058 -95.62229 38173 ft 412 kts 300°
2026-04-26 15:20 46.18419 -95.68942 38175 ft 412 kts 300°
2026-04-26 15:20 46.21777 -95.75665 38166 ft 412 kts 300°
2026-04-26 15:21 46.25128 -95.82389 38159 ft 412 kts 300°
2026-04-26 15:21 46.28451 -95.89074 38157 ft 412 kts 300°
2026-04-26 15:22 46.31798 -95.95824 38147 ft 413 kts 300°
2026-04-26 15:22 46.35139 -96.02579 38144 ft 413 kts 300°
2026-04-26 15:23 46.38485 -96.09357 38145 ft 413 kts 300°
2026-04-26 15:23 46.41826 -96.16143 38151 ft 413 kts 300°
2026-04-26 15:24 46.45139 -96.22889 38150 ft 413 kts 300°
2026-04-26 15:24 46.48475 -96.29697 38148 ft 414 kts 300°
2026-04-26 15:25 46.51245 -96.35363 38151 ft 414 kts 300°
2026-04-26 15:25 46.55135 -96.43342 38163 ft 414 kts 300°
2026-04-26 15:26 46.58462 -96.50181 38166 ft 414 kts 300°
2026-04-26 15:26 46.61788 -96.57037 38157 ft 414 kts 300°
2026-04-26 15:27 46.65086 -96.63849 38164 ft 414 kts 300°
2026-04-26 15:27 46.68408 -96.70727 38165 ft 414 kts 300°
2026-04-26 15:28 46.71724 -96.77605 38168 ft 415 kts 300°
2026-04-26 15:28 46.75047 -96.84484 38167 ft 416 kts 302°
2026-04-26 15:29 46.79043 -96.90699 38160 ft 421 kts 308°
2026-04-26 15:30 46.87180 -97.03027 38166 ft 421 kts 308°
2026-04-26 15:30 46.91221 -97.09160 38156 ft 421 kts 308°
2026-04-26 15:31 46.97320 -97.18442 38159 ft 421 kts 308°
2026-04-26 15:32 47.02720 -97.26686 38158 ft 421 kts 308°
2026-04-26 15:32 47.07459 -97.33943 38162 ft 421 kts 307°
2026-04-26 15:33 47.11485 -97.40125 38164 ft 421 kts 307°
2026-04-26 15:33 47.15535 -97.46357 38159 ft 422 kts 307°
2026-04-26 15:34 47.19583 -97.52602 38160 ft 422 kts 307°
2026-04-26 15:34 47.23630 -97.58859 38159 ft 423 kts 307°
2026-04-26 15:35 47.27683 -97.65141 38155 ft 423 kts 307°
2026-04-26 15:35 47.31743 -97.71449 38157 ft 424 kts 307°
2026-04-26 15:36 47.35801 -97.77769 38151 ft 425 kts 307°
2026-04-26 15:36 47.39863 -97.84109 38151 ft 425 kts 307°
2026-04-26 15:37 47.43935 -97.90479 38151 ft 426 kts 307°
2026-04-26 15:37 47.47982 -97.96824 38147 ft 427 kts 307°
2026-04-26 15:38 47.52212 -98.03075 38159 ft 430 kts 309°
2026-04-26 15:38 47.56503 -98.09269 38148 ft 431 kts 309°
2026-04-26 15:39 47.60800 -98.15503 38152 ft 432 kts 309°
2026-04-26 15:39 47.64372 -98.20698 38153 ft 433 kts 309°
2026-04-26 15:40 47.69370 -98.27985 38159 ft 433 kts 309°
2026-04-26 15:40 47.73672 -98.34274 38154 ft 434 kts 309°
2026-04-26 15:41 47.77978 -98.40583 38158 ft 435 kts 309°
2026-04-26 15:41 47.82285 -98.46911 38158 ft 436 kts 309°
2026-04-26 15:42 47.86597 -98.53262 38162 ft 436 kts 310°
2026-04-26 15:42 47.90907 -98.59625 38158 ft 437 kts 310°
2026-04-26 15:43 47.95224 -98.66014 38159 ft 437 kts 310°
2026-04-26 15:44 48.01696 -98.75623 38142 ft 438 kts 310°
2026-04-26 15:44 48.08144 -98.85232 38130 ft 438 kts 310°
2026-04-26 15:45 48.14618 -98.94916 38132 ft 439 kts 310°
2026-04-26 15:46 48.21095 -99.04641 38137 ft 439 kts 310°
2026-04-26 15:46 48.23982 -99.08989 38144 ft 440 kts 310°
2026-04-26 15:47 48.31860 -99.20888 38156 ft 440 kts 310°
2026-04-26 15:48 48.36175 -99.27428 38165 ft 440 kts 310°
2026-04-26 15:48 48.40494 -99.33992 38155 ft 441 kts 310°
2026-04-26 15:49 48.44809 -99.40567 38151 ft 441 kts 310°
2026-04-26 15:49 48.49125 -99.47160 38160 ft 442 kts 310°
2026-04-26 15:50 48.53442 -99.53771 38160 ft 442 kts 310°
2026-04-26 15:50 48.57732 -99.60359 38151 ft 442 kts 310°
2026-04-26 15:51 48.62048 -99.67001 38154 ft 443 kts 310°
2026-04-26 15:51 48.65640 -99.72545 38154 ft 443 kts 310°
2026-04-26 15:52 48.70656 -99.80306 38156 ft 443 kts 310°
2026-04-26 15:52 48.74272 -99.85915 38153 ft 444 kts 310°
2026-04-26 15:53 48.78557 -99.92576 38158 ft 444 kts 310°
2026-04-26 15:53 48.82867 -99.99296 38152 ft 444 kts 310°
2026-04-26 15:54 48.87175 -100.06030 38153 ft 444 kts 310°
2026-04-26 15:54 48.91477 -100.12772 38148 ft 444 kts 310°
2026-04-26 15:55 48.95753 -100.19491 38152 ft 445 kts 310°
2026-04-26 15:55 49.00054 -100.26267 38150 ft 445 kts 310°
2026-04-26 15:56 49.04352 -100.33057 38148 ft 445 kts 309°
2026-04-26 15:56 49.08648 -100.39860 38147 ft 445 kts 309°
2026-04-26 15:57 49.12943 -100.46681 38149 ft 445 kts 309°
2026-04-26 15:57 49.17215 -100.53484 38147 ft 446 kts 309°
2026-04-26 15:58 49.21506 -100.60335 38147 ft 446 kts 309°
2026-04-26 15:58 49.25800 -100.67207 38144 ft 447 kts 309°
2026-04-26 15:59 49.30089 -100.74093 38144 ft 447 kts 309°
2026-04-26 15:59 49.34379 -100.80997 38145 ft 447 kts 309°
2026-04-26 16:00 49.38671 -100.87924 38144 ft 448 kts 309°
2026-04-26 16:00 49.42956 -100.94858 38140 ft 448 kts 309°
2026-04-26 16:01 49.47253 -101.01830 38141 ft 448 kts 309°
2026-04-26 16:01 49.51540 -101.08806 38138 ft 449 kts 309°
2026-04-26 16:02 49.55803 -101.15761 38135 ft 449 kts 309°
2026-04-26 16:02 49.60086 -101.22769 38139 ft 449 kts 309°
2026-04-26 16:03 49.64379 -101.29812 38136 ft 450 kts 309°
2026-04-26 16:03 49.68661 -101.36854 38128 ft 450 kts 309°
2026-04-26 16:04 49.72947 -101.43924 38134 ft 451 kts 309°
2026-04-26 16:04 49.77230 -101.51010 38130 ft 451 kts 309°
2026-04-26 16:05 49.81513 -101.58115 38127 ft 452 kts 309°
2026-04-26 16:05 49.85773 -101.65199 38127 ft 452 kts 309°
2026-04-26 16:06 49.90058 -101.72347 38125 ft 452 kts 309°
2026-04-26 16:06 49.94344 -101.79516 38127 ft 453 kts 309°
2026-04-26 16:07 49.98626 -101.86699 38128 ft 453 kts 309°
2026-04-26 16:07 50.02902 -101.93891 38124 ft 453 kts 309°
2026-04-26 16:08 50.07182 -102.01111 38119 ft 454 kts 309°
2026-04-26 16:08 50.11459 -102.08343 38119 ft 454 kts 309°
2026-04-26 16:09 50.15711 -102.15551 38118 ft 454 kts 309°
2026-04-26 16:09 50.19987 -102.22819 38116 ft 455 kts 309°
2026-04-26 16:10 50.24265 -102.30112 38116 ft 455 kts 309°
2026-04-26 16:10 50.28542 -102.37421 38116 ft 456 kts 309°
2026-04-26 16:11 50.32819 -102.44752 38117 ft 456 kts 309°
2026-04-26 16:11 50.37073 -102.52134 38102 ft 453 kts 301°
2026-04-26 16:12 50.40353 -102.60421 38121 ft 452 kts 300°
2026-04-26 16:12 50.45608 -102.72762 38114 ft 454 kts 301°
2026-04-26 16:13 50.49129 -102.81007 38112 ft 454 kts 301°
2026-04-26 16:13 50.52645 -102.89260 38110 ft 454 kts 301°
2026-04-26 16:14 50.56153 -102.97522 38113 ft 454 kts 301°
2026-04-26 16:15 50.61385 -103.09891 38109 ft 455 kts 301°
2026-04-26 16:15 50.64887 -103.18205 38104 ft 455 kts 301°
2026-04-26 16:16 50.70125 -103.30688 38106 ft 455 kts 301°
2026-04-26 16:16 50.73611 -103.39027 38106 ft 455 kts 301°
2026-04-26 16:17 50.77097 -103.47396 38113 ft 455 kts 301°
2026-04-26 16:17 50.80573 -103.55766 38106 ft 455 kts 301°
2026-04-26 16:18 50.85757 -103.68300 38102 ft 456 kts 301°
2026-04-26 16:19 50.90945 -103.80905 38101 ft 456 kts 301°
2026-04-26 16:19 50.93832 -103.87945 37415 ft 455 kts 301°
2026-04-26 16:20 50.96145 -103.93599 36141 ft 464 kts 301°
2026-04-26 16:20 50.99614 -104.02102 35215 ft 453 kts 301°
2026-04-26 16:20 51.01320 -104.06294 34670 ft 450 kts 300°
2026-04-26 16:21 51.03011 -104.10458 34103 ft 448 kts 300°
2026-04-26 16:21 51.04699 -104.14619 33466 ft 446 kts 300°
2026-04-26 16:21 51.06353 -104.18703 32899 ft 442 kts 300°
2026-04-26 16:21 51.08028 -104.22844 32384 ft 437 kts 299°
2026-04-26 16:22 51.09639 -104.26836 31872 ft 432 kts 299°
2026-04-26 16:22 51.11251 -104.30834 31347 ft 428 kts 298°
2026-04-26 16:22 51.12854 -104.34817 30827 ft 424 kts 298°
2026-04-26 16:22 51.14433 -104.38746 30323 ft 419 kts 298°
2026-04-26 16:23 51.15995 -104.42639 29743 ft 415 kts 298°
2026-04-26 16:23 51.17540 -104.46493 29201 ft 410 kts 297°
2026-04-26 16:23 51.19061 -104.50295 28733 ft 400 kts 297°
2026-04-26 16:23 51.20534 -104.53981 28290 ft 388 kts 297°
2026-04-26 16:24 51.21966 -104.57569 27838 ft 377 kts 297°
2026-04-26 16:24 51.23337 -104.61012 27408 ft 368 kts 297°
2026-04-26 16:24 51.24691 -104.64416 26989 ft 358 kts 297°
2026-04-26 16:24 51.26011 -104.67735 26591 ft 350 kts 297°
2026-04-26 16:25 51.27297 -104.70977 26200 ft 342 kts 297°
2026-04-26 16:25 51.28565 -104.74178 25810 ft 340 kts 297°
2026-04-26 16:25 51.29828 -104.77369 25425 ft 338 kts 297°
2026-04-26 16:25 51.31080 -104.80534 25049 ft 335 kts 297°
2026-04-26 16:26 51.32321 -104.83677 24684 ft 333 kts 297°
2026-04-26 16:26 51.33139 -104.85751 24434 ft 332 kts 297°
2026-04-26 16:26 51.34768 -104.89883 23948 ft 330 kts 297°
2026-04-26 16:26 51.35987 -104.92981 23563 ft 328 kts 297°
2026-04-26 16:27 51.37198 -104.96063 23133 ft 326 kts 297°
2026-04-26 16:27 51.38399 -104.99123 22758 ft 322 kts 297°
2026-04-26 16:27 51.39587 -105.02153 22400 ft 319 kts 297°
2026-04-26 16:27 51.40755 -105.05137 22063 ft 315 kts 297°
2026-04-26 16:28 51.41913 -105.08098 21716 ft 312 kts 297°
2026-04-26 16:28 51.43042 -105.10987 21386 ft 308 kts 298°
2026-04-26 16:28 51.44177 -105.13893 21047 ft 308 kts 298°
2026-04-26 16:28 51.45324 -105.16834 20697 ft 313 kts 298°
2026-04-26 16:29 51.46484 -105.19810 20345 ft 316 kts 298°
2026-04-26 16:29 51.47650 -105.22804 20012 ft 316 kts 298°
2026-04-26 16:29 51.48811 -105.25792 19669 ft 315 kts 298°
2026-04-26 16:29 51.49967 -105.28768 19327 ft 313 kts 298°
2026-04-26 16:30 51.51120 -105.31737 18987 ft 312 kts 299°
2026-04-26 16:30 51.52264 -105.34691 18647 ft 311 kts 299°
2026-04-26 16:30 51.53402 -105.37628 18290 ft 309 kts 299°
2026-04-26 16:30 51.54531 -105.40544 17911 ft 306 kts 300°
2026-04-26 16:31 51.55938 -105.43125 17466 ft 309 kts 317°
2026-04-26 16:31 51.57564 -105.45349 17138 ft 305 kts 316°
2026-04-26 16:31 51.59166 -105.47551 16827 ft 301 kts 316°
2026-04-26 16:31 51.60755 -105.49721 16500 ft 298 kts 317°
2026-04-26 16:32 51.62328 -105.51864 16172 ft 295 kts 317°
2026-04-26 16:32 51.63362 -105.53273 15952 ft 293 kts 317°
2026-04-26 16:32 51.65435 -105.56096 15508 ft 290 kts 317°
2026-04-26 16:32 51.66968 -105.58183 15186 ft 287 kts 317°
2026-04-26 16:33 51.68468 -105.60229 14869 ft 285 kts 318°
2026-04-26 16:33 51.69994 -105.62312 14543 ft 283 kts 318°
2026-04-26 16:33 51.71491 -105.64358 14231 ft 283 kts 318°
2026-04-26 16:33 51.73007 -105.66431 13903 ft 288 kts 318°
2026-04-26 16:34 51.74520 -105.68503 13535 ft 290 kts 319°
2026-04-26 16:34 51.76056 -105.70605 13197 ft 289 kts 319°
2026-04-26 16:34 51.77585 -105.72701 12857 ft 288 kts 319°
2026-04-26 16:34 51.79115 -105.74799 12537 ft 287 kts 319°
2026-04-26 16:35 51.80632 -105.76884 12207 ft 286 kts 319°
2026-04-26 16:35 51.82149 -105.78970 11876 ft 285 kts 319°
2026-04-26 16:35 51.83655 -105.81042 11546 ft 283 kts 319°
2026-04-26 16:35 51.85154 -105.83107 11238 ft 281 kts 319°
2026-04-26 16:36 51.86634 -105.85147 10920 ft 278 kts 319°
2026-04-26 16:36 51.88100 -105.87169 10596 ft 276 kts 320°
2026-04-26 16:36 51.89548 -105.89170 10379 ft 269 kts 320°
2026-04-26 16:36 51.90950 -105.91108 10257 ft 261 kts 320°
2026-04-26 16:37 51.92307 -105.92985 10121 ft 252 kts 320°
2026-04-26 16:37 51.93634 -105.94821 9853 ft 249 kts 320°
2026-04-26 16:37 51.94947 -105.96641 9536 ft 248 kts 320°
2026-04-26 16:37 51.95810 -105.97849 9332 ft 247 kts 317°
2026-04-26 16:38 51.97193 -106.00756 8897 ft 245 kts 305°
2026-04-26 16:38 51.98144 -106.03033 8630 ft 242 kts 306°
2026-04-26 16:38 51.99086 -106.05286 8327 ft 240 kts 306°
2026-04-26 16:38 52.00017 -106.07512 8076 ft 236 kts 306°
2026-04-26 16:39 52.00931 -106.09699 7811 ft 232 kts 306°
2026-04-26 16:39 52.01828 -106.11844 7551 ft 227 kts 305°
2026-04-26 16:39 52.02709 -106.13952 7295 ft 223 kts 306°
2026-04-26 16:39 52.03570 -106.16016 7073 ft 218 kts 305°
2026-04-26 16:40 52.04412 -106.18035 6818 ft 215 kts 305°
2026-04-26 16:40 52.05237 -106.20015 6552 ft 213 kts 306°
2026-04-26 16:40 52.05798 -106.21363 6368 ft 213 kts 305°
2026-04-26 16:40 52.06084 -106.22048 6275 ft 212 kts 306°
2026-04-26 16:41 52.06911 -106.24037 6015 ft 212 kts 305°
2026-04-26 16:41 52.07734 -106.26016 5768 ft 211 kts 305°
2026-04-26 16:41 52.08545 -106.27968 5626 ft 204 kts 305°
2026-04-26 16:41 52.09316 -106.29826 5522 ft 193 kts 305°
2026-04-26 16:42 52.10055 -106.31605 5412 ft 188 kts 305°
2026-04-26 16:42 52.10786 -106.33369 5314 ft 188 kts 306°
2026-04-26 16:42 52.11516 -106.35130 5209 ft 187 kts 305°
2026-04-26 16:42 52.11991 -106.36278 5166 ft 180 kts 305°
2026-04-26 16:43 52.12666 -106.37907 5028 ft 169 kts 305°
2026-04-26 16:43 52.13315 -106.39477 4896 ft 166 kts 306°
2026-04-26 16:43 52.13905 -106.41093 4789 ft 166 kts 296°
2026-04-26 16:43 52.14299 -106.42872 4687 ft 169 kts 288°
2026-04-26 16:44 52.14570 -106.44745 4389 ft 170 kts 285°
2026-04-26 16:44 52.14807 -106.46617 4157 ft 167 kts 285°
2026-04-26 16:44 52.15032 -106.48463 4029 ft 165 kts 284°
2026-04-26 16:44 52.15255 -106.50301 4052 ft 166 kts 284°
2026-04-26 16:45 52.15476 -106.52126 3870 ft 166 kts 285°
2026-04-26 16:45 52.15692 -106.53924 3671 ft 153 kts 285°
2026-04-26 16:45 52.15892 -106.55581 3513 ft 146 kts 285°
2026-04-26 16:45 52.16087 -106.57191 3296 ft 144 kts 285°
2026-04-26 16:46 52.16283 -106.58793 3094 ft 146 kts 285°
2026-04-26 16:46 52.16481 -106.60398 2911 ft 142 kts 285°
2026-04-26 16:46 52.16673 -106.61986 2629 ft 143 kts 284°
2026-04-26 16:46 52.16867 -106.63536 2339 ft 137 kts 284°
2026-04-26 16:47 52.17047 -106.65060 2098 ft 137 kts 281°
2026-04-26 16:47 52.17228 -106.66588 1876 ft 137 kts 281°
2026-04-26 16:47 52.17410 -106.68102 1697 ft 136 kts 281°
2026-04-26 16:47 52.17573 -106.69491 1654 ft 101 kts 281°
2026-04-26 16:48 52.17666 -106.70259 1649 ft 53 kts 281°
2026-04-26 16:48 52.17733 -106.70823 1652 ft 48 kts 281°
2026-04-26 16:48 52.17791 -106.71308 1654 ft 36 kts 281°
2026-04-26 16:48 52.17832 -106.71650 1653 ft 25 kts 281°
2026-04-26 16:49 52.17769 -106.71794 1652 ft 18 kts 173°
2026-04-26 16:49 52.17659 -106.71692 1652 ft 19 kts 146°
2026-04-26 16:49 52.17544 -106.71567 1652 ft 21 kts 146°
2026-04-26 16:49 52.17474 -106.71362 1652 ft 22 kts 101°
2026-04-26 16:50 52.17445 -106.71112 1652 ft 24 kts 101°
2026-04-26 16:50 52.17416 -106.70873 1652 ft 19 kts 101°
2026-04-26 16:50 52.17390 -106.70652 1652 ft 21 kts 101°
2026-04-26 16:50 52.17363 -106.70418 1652 ft 22 kts 101°
2026-04-26 16:51 52.17330 -106.70175 1652 ft 22 kts 101°
2026-04-26 16:51 52.17301 -106.69917 1652 ft 24 kts 100°
2026-04-26 16:51 52.17269 -106.69648 1652 ft 24 kts 102°
2026-04-26 16:51 52.17240 -106.69411 1652 ft 22 kts 101°
2026-04-26 16:52 52.17214 -106.69195 1652 ft 16 kts 100°
2026-04-26 16:52 52.17200 -106.69113 1652 ft 9 kts 127°
2026-04-26 16:52 52.17128 -106.69163 1652 ft 10 kts 242°
2026-04-26 16:52 52.17100 -106.69283 1652 ft 12 kts 249°
2026-04-26 16:53 52.17046 -106.69399 1652 ft 14 kts 223°
2026-04-26 16:53 52.16984 -106.69463 1652 ft 6 kts 163°
2026-04-26 16:53 52.16968 -106.69399 1652 ft 7 kts 99°
2026-04-26 16:53 52.16961 -106.69333 1652 ft 4 kts 99°
2026-04-26 16:54 52.16960 -106.69321 1652 ft 0 kts 99°